Theta_e
300 300 299 299 299 299 300 300 300 301 301 302 302 303 301 308 309 308 308 308 308 311 310 307 308 309 310 309 311 314 309 308 310 311 313 315 314 316 329 328 328 337 337 336 337
299 299 299 299 299 300 301 301 300 300 301 302 302 302 301 308 309 307 307 308 308 310 310 308 308 309 309 308 311 309 306 306 308 310 312 314 313 315 316 316 322 325 337 336 336
299 300 300 300 300 301 302 302 300 301 301 302 304 303 302 307 307 306 306 307 308 309 309 309 307 309 307 308 310 309 308 307 310 312 314 312 313 315 315 313 315 325 332 336 336
299 300 300 300 300 300 300 301 301 301 303 303 305 305 306 307 302 306 305 306 306 308 308 309 309 309 306 304 306 307 306 308 309 310 312 309 313 311 314 314 318 317 323 335 335
299 299 300 301 300 300 300 301 302 302 304 307 306 306 305 304 305 305 304 304 307 307 307 308 309 308 306 305 304 302 304 307 308 309 309 310 307 310 311 313 313 314 325 337 335
298 299 299 300 300 300 302 302 304 304 307 306 305 304 304 303 304 303 303 303 303 304 305 307 308 308 307 305 304 305 305 305 307 306 306 307 306 308 309 311 311 312 319 332 336
298 298 299 300 300 301 303 303 306 305 306 307 307 308 303 302 304 303 301 301 301 302 303 304 306 308 307 306 308 306 305 307 306 305 304 307 305 305 309 310 311 311 312 320 334
298 298 299 300 300 301 304 305 307 306 304 306 309 308 306 301 303 302 301 302 301 301 301 302 304 307 307 307 307 307 306 305 305 305 305 308 306 307 310 311 311 312 313 328 337
298 298 298 299 300 301 304 305 305 307 306 303 306 306 301 300 301 301 300 299 300 303 303 305 306 306 306 305 305 304 306 305 306 305 307 305 307 307 311 311 311 314 319 335 338
298 298 298 299 300 301 303 304 303 302 305 302 302 303 300 299 301 300 299 300 302 304 305 304 306 302 300 303 306 305 305 304 304 305 304 304 306 305 308 311 318 323 330 338 339
298 298 298 300 301 301 302 305 305 305 300 302 301 299 299 298 300 299 299 298 302 303 301 303 304 304 303 303 304 306 306 306 305 306 304 303 305 306 305 308 312 331 334 338 339
298 299 298 299 301 301 302 304 307 306 305 299 299 299 298 298 299 298 298 297 300 301 300 299 302 304 303 304 306 306 305 306 306 306 306 306 307 306 303 304 308 326 333 334 337
299 300 298 299 300 299 301 302 306 307 305 299 298 298 298 298 298 298 298 297 300 299 297 297 299 300 299 300 305 307 307 306 305 306 305 305 307 307 303 305 308 316 330 334 335
300 300 298 299 300 299 299 302 306 307 298 298 298 298 297 297 297 297 297 297 296 297 297 298 300 297 297 299 303 307 307 308 307 306 307 306 307 306 304 304 304 312 332 334 335
299 298 298 299 298 298 299 306 308 308 300 297 297 298 297 296 296 296 297 296 295 295 295 294 296 299 302 306 304 306 307 308 308 306 306 306 303 307 304 304 304 305 322 332 334
300 300 299 299 299 298 300 308 303 296 298 298 297 297 296 296 296 296 296 295 295 295 294 294 296 303 302 300 300 302 304 308 308 307 308 307 306 306 303 306 305 305 309 324 331
300 299 299 299 298 298 300 304 296 292 296 295 296 296 295 295 295 295 295 293 293 293 293 293 295 299 299 299 300 301 303 311 310 308 309 307 307 308 305 305 307 307 307 312 326
299 298 298 299 299 299 300 294 290 296 296 296 296 296 295 295 294 294 294 293 293 293 292 293 294 296 297 299 302 303 303 313 310 309 306 307 308 307 308 309 308 308 309 309 312
300 298 298 298 299 299 299 290 294 296 295 295 295 296 295 294 294 293 293 293 293 293 292 292 295 296 298 300 302 302 308 305 309 309 309 307 305 311 314 316 317 322 323 322 320
299 297 298 298 298 298 295 296 296 296 295 295 295 295 295 294 294 294 294 294 294 293 293 293 295 295 298 299 299 300 301 308 308 312 313 307 312 315 315 318 320 321 320 320 321
298 297 296 298 298 297 292 295 296 296 296 295 295 295 295 295 294 294 294 295 294 294 294 292 294 294 296 299 298 298 299 301 304 309 311 311 317 313 314 316 318 316 314 315 319
297 294 296 297 296 293 292 296 296 296 295 295 296 295 295 295 295 295 295 295 295 293 293 293 294 295 293 295 300 296 298 299 301 304 307 308 316 307 308 311 309 308 308 310 314
296 296 294 296 290 287 295 295 296 295 295 294 295 295 294 295 295 295 295 295 295 293 294 295 293 294 293 296 298 295 297 298 301 303 307 309 311 305 305 305 304 304 305 306 311
295 289 294 294 293 293 294 294 295 296 295 294 295 295 294 294 294 294 294 293 292 292 293 294 292 291 293 292 293 295 296 298 300 304 304 308 304 304 303 302 302 301 302 305 308
294 293 293 288 291 292 293 294 295 294 294 294 295 294 294 293 294 294 292 292 292 292 292 292 293 293 293 294 294 295 296 299 303 302 303 306 303 304 303 302 301 300 300 302 304
294 293 293 293 293 292 293 293 295 294 293 294 294 294 293 293 292 291 291 292 292 291 292 292 293 293 294 294 295 295 297 298 297 298 297 298 299 300 300 300 299 299 300 300 300
292 292 292 291 292 292 292 294 293 293 293 294 293 293 293 292 291 291 291 291 291 291 291 293 294 294 294 294 294 296 295 297 295 296 296 295 294 294 301 301 299 298 298 297 298
Wind_Speed
23 22 22 22 20 20 20 21 22 20 20 18 16 13 11 22 27 32 27 26 24 18 15 7 4 7 15 7 9 6 1 5 8 7 6 2 1 5 3 4 5 8 6 4 18
25 25 25 23 21 22 22 22 27 22 18 14 15 11 8 16 17 32 26 22 18 17 14 4 1 5 5 5 7 5 4 10 6 8 6 2 5 8 6 12 16 19 19 15 16
27 27 27 25 23 23 23 22 27 23 19 12 15 9 4 13 14 25 26 24 21 15 18 7 1 1 3 5 6 6 9 6 5 10 12 6 7 15 8 9 25 16 20 21 25
27 27 27 27 25 24 25 24 25 17 15 13 13 14 18 8 5 22 25 25 22 18 15 11 5 2 2 4 6 6 8 9 8 19 11 6 13 7 16 27 22 19 17 23 34
26 27 27 27 25 27 26 26 21 13 13 13 13 16 16 19 13 21 24 25 19 16 16 13 7 2 3 3 6 7 4 18 23 22 19 21 9 11 20 37 34 30 16 26 34
26 28 28 28 26 27 27 21 15 13 13 21 28 24 20 25 13 23 28 27 26 21 13 9 5 12 10 6 5 6 11 16 20 26 17 14 8 11 28 36 33 28 28 30 37
25 28 28 29 27 27 27 13 14 20 16 11 11 10 37 21 9 25 35 35 27 19 15 11 12 10 4 4 15 13 12 17 12 7 8 9 9 19 33 29 28 29 33 36 43
25 28 29 28 27 28 26 11 8 10 25 15 5 10 8 29 18 33 42 40 30 20 20 16 13 19 15 12 5 5 4 6 6 5 7 13 22 11 10 24 29 31 33 31 40
25 27 28 27 26 27 21 17 14 3 8 28 10 6 7 29 28 35 43 41 30 22 15 10 9 10 4 3 5 1 14 9 5 4 5 8 20 5 15 21 22 20 28 32 39
24 26 27 27 23 26 19 16 25 21 3 8 25 7 29 36 20 38 46 29 30 22 10 15 6 2 4 4 14 5 8 6 6 3 5 9 23 11 13 10 16 21 28 33 35
24 25 25 25 20 26 25 5 5 6 33 22 10 13 27 35 13 38 47 18 22 17 7 9 5 5 4 7 15 14 18 23 12 4 4 9 21 17 8 17 11 21 25 30 35
23 24 25 24 15 23 22 14 9 2 2 22 17 27 32 27 25 39 47 23 12 7 14 6 4 6 16 15 16 15 17 24 23 8 11 14 23 15 9 10 19 24 28 31 32
23 24 26 24 9 25 22 21 4 1 2 12 19 27 30 18 20 32 46 23 5 9 16 4 9 12 17 17 14 16 17 23 21 5 10 6 22 14 9 11 20 28 37 36 40
22 24 26 25 10 27 19 19 2 4 4 10 12 15 30 15 11 29 39 16 8 7 9 5 6 20 17 14 11 14 14 20 17 10 13 10 18 11 6 10 10 21 27 34 38
20 22 25 23 15 25 20 10 5 4 5 16 8 11 26 23 15 28 29 15 7 15 9 11 17 15 11 6 17 13 16 18 17 13 11 11 5 14 8 8 11 14 29 38 43
16 22 24 23 21 23 12 5 3 6 3 6 8 14 8 22 16 23 18 29 6 7 12 17 15 4 3 20 18 21 15 13 13 10 11 18 12 5 7 16 7 6 24 35 41
12 17 18 20 29 22 6 1 5 7 5 9 8 9 5 14 7 17 9 15 15 15 27 12 9 3 14 24 22 13 8 3 5 6 13 16 14 17 8 7 9 9 17 31 38
9 14 16 20 22 13 3 6 11 3 2 6 7 7 7 14 5 14 5 6 8 15 11 10 10 7 20 10 10 20 7 4 9 9 9 13 14 13 16 17 7 15 20 20 32
3 22 23 26 22 8 4 7 4 3 6 6 9 4 4 6 3 9 7 5 6 14 8 6 7 22 12 8 10 11 2 10 6 11 7 10 10 3 14 14 9 8 11 11 14
5 4 29 17 19 8 8 6 3 3 6 4 6 5 6 8 8 10 5 1 6 11 12 5 13 9 12 7 5 8 16 1 5 5 9 7 7 6 17 18 9 7 8 13 16
7 5 30 17 16 20 4 3 4 13 14 5 5 5 5 9 6 5 3 7 5 10 18 7 4 12 13 4 12 10 10 8 6 4 4 2 5 11 15 12 12 12 15 15 14
14 6 28 10 11 6 3 4 5 11 16 8 3 5 6 10 5 5 5 3 12 20 9 4 4 12 24 15 4 8 6 9 5 7 5 4 4 17 18 14 15 16 19 17 15
7 5 27 20 4 4 3 5 5 8 7 7 3 4 7 5 7 6 4 17 14 16 6 5 3 9 10 2 3 7 14 17 13 7 3 5 4 17 19 18 22 20 23 23 22
4 3 9 20 17 4 3 4 6 12 2 13 4 4 12 11 7 9 14 8 31 28 28 10 4 6 8 12 12 14 21 18 11 4 9 4 14 20 22 21 20 27 26 24 26
8 5 6 4 8 8 4 5 7 9 6 10 3 11 14 7 12 3 23 20 18 23 7 3 5 8 12 16 16 14 14 17 11 15 8 8 15 15 15 16 21 27 30 31 31
6 5 5 4 5 5 7 4 7 10 4 5 9 14 10 5 10 23 23 21 10 7 11 4 5 7 8 12 6 14 10 12 14 15 14 14 10 19 17 24 29 31 32 34 34
14 10 3 5 5 3 2 4 9 13 8 6 17 11 10 11 27 33 34 30 21 14 10 4 6 5 4 9 13 1 10 12 12 18 14 15 18 23 11 13 24 29 33 34 35
Wind_Direction
20 15 10 8 6 2 1 1 356 351 352 6 4 358 38 100 59 42 24 5 358 344 341 286 259 226 219 213 208 181 115 211 218 188 235 80 65 251 278 292 291 225 277 267 207
17 13 10 10 9 5 1 356 351 347 356 17 8 359 43 134 63 34 22 13 6 359 353 335 272 226 198 203 199 162 185 215 213 210 243 237 290 298 314 305 282 265 248 264 210
16 12 10 9 9 5 358 350 346 352 360 8 2 9 45 147 71 6 7 11 8 8 26 358 232 283 231 218 205 204 236 174 240 241 234 211 235 258 261 276 268 245 250 237 202
13 11 8 8 11 5 356 345 343 348 6 10 13 80 77 121 59 358 359 0 0 3 9 20 345 260 225 232 229 257 247 241 256 257 242 221 235 234 233 255 257 283 281 221 193
12 9 8 8 8 3 355 347 352 11 24 34 73 96 79 66 25 2 355 357 338 343 358 3 340 268 238 261 293 239 247 262 262 266 252 256 223 240 240 260 263 272 253 215 204
10 7 5 5 6 3 356 359 21 35 46 94 88 76 65 60 18 0 356 353 353 344 330 326 307 303 276 246 220 273 281 279 280 264 266 240 256 219 247 259 263 260 237 228 216
8 6 4 5 5 5 0 16 57 62 50 128 126 52 48 31 344 349 358 354 350 336 323 290 270 248 224 288 271 266 293 296 265 253 226 214 273 224 246 248 253 256 252 238 223
7 6 3 5 4 7 6 42 47 72 50 49 152 57 78 14 352 353 349 344 353 341 314 297 276 254 230 243 306 281 278 292 339 226 228 146 261 252 218 225 238 248 254 226 206
5 6 3 3 3 11 23 59 46 125 46 40 51 65 20 353 9 354 358 354 353 349 325 291 255 232 191 101 335 211 265 267 315 235 194 191 252 284 218 217 235 246 242 209 204
4 5 2 2 3 9 24 83 66 54 83 38 40 89 7 346 359 357 1 358 1 10 14 358 321 7 29 131 241 178 236 232 182 269 219 224 254 259 280 205 244 243 224 203 197
4 5 4 4 12 10 17 184 4 46 54 57 61 58 355 352 355 11 4 9 16 32 22 321 13 277 279 276 283 284 272 271 255 234 321 255 266 266 220 258 239 225 210 208 203
1 4 8 5 21 15 18 55 45 22 33 39 38 17 2 357 13 12 3 12 9 6 352 3 269 330 328 312 285 275 273 269 278 248 261 273 274 275 206 221 222 215 211 212 210
1 360 6 6 17 12 22 18 11 74 75 16 23 22 3 360 22 10 9 355 360 349 344 302 271 316 318 310 310 275 260 265 266 305 269 279 276 265 258 235 226 226 219 212 208
3 2 5 8 10 6 5 0 100 137 81 349 358 14 359 1 25 8 11 1 358 322 340 306 319 318 313 313 345 299 265 265 269 255 251 194 271 252 239 222 219 211 211 214 213
8 5 4 7 8 8 352 13 104 134 53 324 356 352 3 20 313 359 5 1 6 337 16 308 306 328 341 3 335 271 297 271 262 250 261 247 248 257 177 234 225 216 206 214 219
0 357 355 1 3 359 2 71 81 44 25 336 349 341 12 4 343 348 17 23 12 313 349 313 293 24 336 326 297 293 280 250 251 240 247 232 224 232 190 214 220 213 214 214 218
20 6 7 5 355 353 24 82 41 79 342 335 332 337 23 352 339 0 5 24 33 359 344 333 332 37 357 340 326 333 341 227 210 222 231 224 225 234 234 216 193 202 216 222 219
55 25 29 19 354 357 88 66 65 299 5 295 319 323 14 2 340 343 16 16 31 19 318 342 327 9 337 330 286 293 231 254 212 210 223 213 217 237 227 267 295 255 257 246 232
34 27 31 22 3 18 68 53 167 337 307 316 320 7 343 359 297 351 358 16 33 19 13 318 265 316 317 357 341 331 298 309 285 284 204 190 233 239 16 7 345 356 7 337 295
33 34 23 19 19 58 69 97 84 4 326 341 -0 30 355 331 353 344 343 150 345 15 0 276 301 298 342 357 354 336 324 28 202 265 232 208 165 357 353 349 344 5 1 348 333
39 59 5 13 45 56 85 90 69 17 15 349 5 325 4 333 313 308 283 305 26 352 340 290 244 291 309 36 12 342 359 359 292 294 255 137 91 14 345 357 9 18 14 4 351
49 52 8 35 51 36 40 17 36 360 18 8 50 16 11 321 300 286 312 257 7 1 324 282 279 302 295 287 216 343 339 357 332 324 301 270 100 10 342 22 22 15 9 13 16
61 61 35 53 70 2 2 17 53 18 21 7 334 1 13 329 319 322 304 327 316 345 319 297 314 313 328 22 214 343 333 334 312 266 360 319 34 1 9 22 20 13 6 13 23
75 30 27 52 54 66 13 4 1 357 318 348 287 10 347 316 281 287 314 315 310 304 302 316 230 207 259 268 291 311 318 333 318 292 323 49 21 12 14 11 13 14 13 16 26
49 61 20 352 3 22 37 354 357 8 349 341 360 354 334 314 314 339 315 306 309 304 356 248 255 247 260 268 280 286 309 324 344 0 12 0 36 10 15 5 5 11 17 23 21
66 31 19 24 359 22 12 11 359 343 310 318 345 327 315 294 339 312 306 306 295 314 344 263 273 300 283 283 301 310 353 33 35 12 17 14 12 346 16 22 14 14 21 21 21
37 29 39 8 359 22 44 335 331 339 322 320 320 318 308 332 308 294 288 277 263 281 299 312 317 302 267 288 308 93 355 45 37 39 16 26 346 355 12 23 18 20 16 22 22